Temp
-11 -12 -11 -10 -11 -11 -11 -11 -10 -10 -11 -12 -10 -9 -9 -10 -10 -10 -10 -9 -9 -9 -9 -9 -10 -10 -10 -11 -11 -11 -12 -12 -12 -12 -12 -12 -12 -12 -11 -11 -12 -12 -13 -13
-11 -11 -11 -11 -11 -11 -11 -11 -10 -11 -11 -11 -11 -10 -10 -10 -9 -10 -9 -9 -9 -8 -9 -10 -10 -10 -11 -12 -11 -10 -11 -11 -11 -12 -12 -13 -12 -12 -11 -11 -11 -12 -13 -13
-12 -11 -11 -11 -11 -11 -11 -11 -11 -11 -11 -11 -12 -10 -11 -9 -9 -10 -9 -9 -8 -8 -10 -9 -10 -10 -11 -11 -11 -11 -11 -11 -11 -12 -13 -12 -12 -12 -13 -13 -12 -12 -13 -13
-12 -12 -12 -11 -11 -11 -11 -11 -11 -11 -12 -11 -13 -10 -10 -9 -9 -9 -9 -9 -9 -10 -9 -9 -10 -10 -11 -11 -11 -11 -12 -11 -11 -12 -12 -12 -12 -13 -13 -13 -13 -13 -13 -12
-13 -13 -13 -12 -12 -12 -10 -11 -11 -12 -12 -12 -11 -11 -6 -9 -8 -9 -9 -9 -10 -9 -9 -9 -10 -10 -11 -11 -11 -11 -12 -11 -12 -12 -12 -12 -12 -13 -13 -12 -12 -12 -12 -12
-16 -17 -16 -14 -13 -12 -11 -12 -12 -12 -12 -11 -10 -10 -7 -8 -9 -9 -9 -9 -9 -9 -9 -9 -10 -10 -11 -11 -11 -11 -12 -11 -12 -12 -11 -12 -12 -12 -12 -12 -12 -12 -12 -12
-20 -20 -17 -15 -14 -13 -12 -12 -12 -12 -12 -9 -10 -10 -7 -9 -10 -10 -9 -9 -9 -8 -9 -10 -10 -10 -10 -11 -11 -11 -12 -12 -12 -11 -11 -12 -11 -11 -12 -12 -12 -12 -12 -12
-22 -20 -18 -16 -15 -14 -13 -14 -12 -10 -11 -9 -11 -8 -7 -9 -11 -10 -9 -9 -8 -9 -10 -9 -10 -10 -10 -11 -11 -11 -11 -11 -11 -11 -11 -11 -11 -12 -12 -12 -12 -12 -12 -12
-22 -21 -19 -18 -17 -15 -14 -13 -12 -12 -12 -10 -10 -9 -8 -9 -10 -11 -10 -9 -9 -9 -9 -10 -10 -11 -11 -11 -11 -11 -11 -11 -11 -11 -11 -11 -12 -12 -11 -11 -12 -12 -12 -12
-22 -21 -21 -21 -19 -16 -15 -15 -16 -13 -13 -10 -9 -9 -8 -10 -10 -11 -10 -9 -10 -9 -10 -10 -10 -11 -11 -11 -11 -11 -11 -11 -11 -11 -11 -11 -11 -11 -11 -12 -12 -12 -12 -12
-23 -23 -21 -21 -20 -18 -16 -17 -16 -16 -14 -11 -9 -9 -10 -11 -11 -11 -10 -10 -10 -9 -10 -10 -10 -11 -11 -11 -11 -10 -10 -10 -11 -11 -11 -11 -11 -11 -12 -12 -12 -12 -12 -12
-23 -22 -22 -22 -21 -20 -19 -18 -17 -15 -12 -11 -9 -8 -11 -12 -11 -11 -10 -10 -10 -10 -11 -10 -11 -11 -11 -11 -10 -10 -10 -11 -11 -11 -11 -11 -11 -12 -12 -12 -12 -11 -12 -12
-23 -22 -22 -22 -22 -21 -19 -18 -18 -15 -14 -11 -10 -10 -12 -12 -12 -12 -11 -11 -11 -11 -11 -11 -11 -11 -11 -11 -10 -10 -10 -11 -11 -11 -11 -11 -12 -12 -12 -12 -12 -12 -12 -12
-23 -23 -22 -22 -22 -21 -21 -19 -18 -16 -13 -11 -10 -11 -12 -12 -11 -12 -11 -11 -11 -12 -12 -12 -11 -11 -11 -11 -10 -10 -10 -11 -10 -11 -11 -12 -12 -11 -11 -11 -12 -12 -12 -12
-23 -23 -22 -22 -22 -21 -20 -19 -18 -16 -13 -11 -11 -13 -13 -13 -11 -11 -11 -11 -11 -12 -12 -12 -12 -11 -11 -10 -10 -10 -10 -10 -10 -11 -11 -11 -11 -11 -12 -12 -12 -12 -12 -12
-23 -22 -22 -22 -22 -21 -20 -20 -19 -16 -14 -11 -12 -12 -14 -13 -12 -10 -11 -11 -11 -12 -12 -12 -11 -11 -11 -10 -10 -10 -11 -10 -11 -11 -11 -11 -11 -11 -12 -12 -12 -12 -12 -12
-23 -22 -22 -22 -22 -21 -21 -20 -19 -18 -16 -13 -12 -13 -14 -13 -12 -11 -13 -11 -12 -12 -12 -12 -11 -11 -11 -10 -10 -10 -11 -10 -11 -11 -11 -11 -11 -12 -12 -12 -12 -12 -12 -12
-22 -22 -22 -21 -21 -21 -20 -20 -19 -18 -17 -15 -14 -14 -13 -12 -12 -12 -12 -12 -13 -13 -12 -12 -11 -11 -10 -10 -10 -11 -11 -11 -11 -11 -11 -11 -12 -12 -12 -12 -12 -12 -12 -12
-22 -22 -21 -21 -21 -20 -19 -20 -19 -18 -17 -15 -14 -14 -13 -12 -12 -11 -12 -12 -12 -13 -12 -11 -11 -11 -11 -11 -11 -11 -11 -11 -11 -11 -11 -11 -11 -12 -12 -12 -12 -12 -13 -12
-21 -21 -21 -20 -20 -19 -19 -18 -18 -17 -17 -15 -14 -13 -12 -13 -12 -12 -12 -12 -12 -12 -12 -12 -11 -11 -11 -11 -11 -11 -11 -11 -11 -11 -11 -11 -11 -11 -12 -12 -12 -12 -12 -12
-21 -21 -20 -20 -19 -19 -17 -17 -18 -17 -16 -15 -14 -13 -12 -11 -12 -12 -12 -13 -13 -13 -13 -12 -12 -11 -11 -11 -11 -11 -11 -11 -11 -12 -12 -11 -12 -12 -12 -12 -12 -12 -12 -12
-20 -20 -19 -19 -18 -18 -17 -17 -18 -16 -16 -15 -14 -14 -12 -12 -12 -12 -12 -13 -13 -13 -13 -12 -12 -11 -11 -11 -11 -11 -11 -11 -11 -12 -12 -12 -12 -12 -12 -12 -12 -12 -12 -12
-20 -20 -19 -19 -18 -18 -16 -17 -17 -16 -15 -13 -14 -13 -12 -12 -13 -13 -13 -12 -13 -13 -13 -12 -12 -11 -11 -11 -11 -11 -11 -12 -12 -12 -12 -12 -12 -12 -12 -13 -12 -12 -12 -12
-20 -19 -19 -19 -18 -17 -16 -17 -16 -14 -14 -13 -13 -14 -13 -14 -13 -12 -13 -13 -12 -13 -13 -13 -12 -12 -12 -12 -11 -12 -12 -12 -12 -12 -12 -12 -12 -12 -12 -13 -13 -13 -12 -12
-19 -19 -20 -19 -18 -18 -17 -15 -15 -14 -15 -14 -13 -14 -13 -13 -13 -13 -12 -13 -13 -13 -13 -13 -13 -12 -12 -12 -12 -12 -12 -12 -12 -12 -12 -12 -12 -12 -12 -13 -13 -13 -13 -12
-20 -20 -19 -19 -19 -18 -17 -18 -15 -15 -14 -14 -14 -14 -14 -13 -13 -13 -13 -13 -13 -13 -13 -13 -12 -12 -12 -12 -12 -12 -12 -12 -12 -12 -12 -12 -12 -12 -12 -13 -13 -13 -13 -13
Height
5684 5688 5707 5726 5728 5730 5731 5731 5739 5747 5749 5754 5758 5759 5765 5771 5773 5775 5777 5781 5784 5785 5788 5786 5785 5783 5780 5779 5779 5777 5776 5775 5775 5776 5773 5773 5773 5771 5770 5768 5764 5763 5759 5754
5668 5685 5703 5705 5702 5710 5718 5723 5734 5737 5740 5746 5750 5749 5752 5757 5761 5764 5772 5774 5776 5775 5776 5777 5775 5773 5772 5773 5770 5769 5767 5765 5767 5768 5766 5766 5765 5763 5762 5759 5755 5754 5751 5748
5655 5677 5681 5684 5687 5698 5707 5713 5724 5726 5731 5736 5733 5739 5737 5752 5754 5759 5759 5765 5765 5767 5769 5768 5766 5765 5764 5762 5761 5760 5759 5758 5758 5759 5761 5760 5758 5757 5755 5753 5751 5747 5745 5741
5643 5657 5662 5667 5673 5683 5691 5705 5711 5713 5720 5722 5729 5723 5734 5744 5748 5750 5754 5754 5757 5759 5761 5759 5757 5757 5756 5755 5754 5753 5753 5752 5752 5754 5756 5755 5754 5751 5750 5748 5744 5742 5739 5736
5638 5634 5638 5649 5664 5668 5688 5689 5697 5703 5708 5711 5719 5723 5732 5735 5739 5745 5747 5749 5750 5753 5753 5751 5751 5750 5749 5747 5746 5746 5747 5748 5748 5750 5750 5748 5747 5745 5744 5741 5738 5736 5733 5731
5616 5615 5624 5640 5644 5657 5670 5676 5684 5691 5697 5700 5717 5719 5722 5730 5736 5738 5740 5742 5745 5745 5744 5746 5745 5742 5741 5740 5740 5741 5742 5743 5745 5745 5743 5742 5741 5739 5737 5735 5733 5731 5729 5726
5599 5601 5614 5626 5633 5644 5655 5661 5670 5680 5684 5700 5709 5709 5719 5726 5729 5728 5733 5736 5738 5737 5739 5739 5737 5736 5735 5734 5736 5737 5739 5740 5740 5738 5737 5735 5735 5733 5732 5730 5728 5725 5723 5720
5588 5597 5607 5613 5620 5632 5642 5647 5659 5670 5678 5692 5697 5700 5709 5722 5717 5724 5727 5731 5732 5733 5732 5732 5731 5731 5730 5731 5733 5734 5736 5736 5734 5733 5731 5729 5729 5728 5726 5725 5723 5720 5717 5715
5583 5589 5595 5604 5610 5620 5632 5637 5657 5657 5668 5678 5687 5695 5705 5715 5715 5720 5722 5726 5727 5727 5727 5727 5727 5727 5727 5729 5730 5731 5732 5730 5729 5727 5726 5725 5723 5722 5722 5721 5718 5715 5713 5711
5582 5585 5595 5595 5599 5610 5625 5633 5636 5648 5657 5668 5678 5686 5697 5710 5712 5714 5717 5722 5723 5723 5723 5724 5725 5725 5725 5727 5727 5728 5727 5725 5724 5723 5721 5721 5720 5719 5717 5715 5713 5711 5709 5708
5575 5576 5586 5588 5594 5605 5612 5619 5628 5637 5648 5660 5671 5679 5697 5703 5706 5709 5714 5717 5719 5719 5720 5722 5722 5722 5724 5723 5724 5724 5723 5721 5721 5719 5718 5718 5717 5714 5712 5710 5709 5708 5707 5706
5569 5570 5572 5580 5585 5592 5598 5608 5617 5626 5642 5655 5663 5678 5693 5695 5699 5701 5710 5712 5713 5715 5717 5718 5718 5719 5720 5721 5721 5720 5719 5719 5717 5717 5716 5715 5713 5710 5709 5708 5707 5706 5705 5704
5564 5563 5567 5572 5578 5582 5588 5597 5607 5619 5633 5645 5657 5677 5681 5689 5695 5698 5704 5708 5709 5713 5715 5716 5717 5718 5718 5718 5718 5717 5717 5716 5715 5714 5714 5712 5709 5709 5707 5705 5705 5704 5704 5704
5560 5560 5562 5566 5568 5571 5578 5586 5600 5611 5626 5641 5652 5670 5676 5683 5688 5692 5701 5706 5709 5711 5712 5714 5715 5716 5716 5716 5715 5715 5715 5714 5713 5712 5710 5708 5706 5706 5704 5702 5702 5703 5703 5703
5555 5557 5557 5557 5560 5561 5572 5579 5590 5602 5621 5632 5646 5662 5668 5677 5683 5689 5696 5701 5705 5708 5710 5712 5714 5714 5714 5713 5713 5713 5713 5712 5711 5709 5708 5706 5704 5703 5701 5700 5701 5701 5702 5702
5554 5554 5554 5553 5555 5562 5570 5576 5583 5597 5612 5625 5638 5657 5665 5668 5678 5683 5690 5697 5701 5704 5708 5710 5712 5712 5711 5711 5711 5711 5711 5710 5710 5708 5706 5703 5702 5701 5699 5699 5699 5700 5701 5701
5551 5551 5550 5550 5554 5560 5565 5571 5580 5592 5604 5617 5631 5651 5653 5662 5672 5677 5685 5693 5698 5701 5705 5708 5710 5710 5708 5709 5709 5709 5710 5709 5708 5706 5704 5703 5701 5700 5699 5698 5698 5699 5700 5700
5547 5547 5547 5548 5551 5558 5560 5569 5579 5592 5605 5615 5630 5641 5650 5656 5667 5676 5681 5688 5694 5698 5702 5706 5708 5708 5707 5708 5708 5708 5709 5708 5707 5705 5704 5702 5701 5700 5698 5697 5697 5698 5699 5700
5541 5543 5545 5547 5552 5555 5562 5570 5579 5594 5604 5611 5634 5640 5648 5653 5661 5665 5673 5683 5690 5695 5701 5705 5706 5705 5706 5707 5706 5707 5708 5708 5706 5705 5704 5703 5701 5699 5698 5697 5698 5698 5698 5699
5544 5543 5546 5548 5549 5555 5561 5568 5579 5593 5604 5616 5625 5636 5644 5649 5656 5666 5668 5678 5687 5694 5701 5702 5703 5703 5705 5705 5705 5707 5707 5707 5706 5705 5705 5703 5701 5700 5699 5698 5698 5697 5697 5698
5544 5544 5545 5549 5549 5553 5556 5563 5578 5593 5604 5607 5617 5627 5637 5645 5652 5661 5668 5676 5684 5689 5696 5699 5701 5701 5703 5704 5705 5706 5707 5707 5706 5706 5706 5705 5704 5701 5699 5698 5698 5698 5698 5697
5547 5547 5547 5550 5556 5558 5553 5559 5574 5586 5599 5607 5616 5625 5631 5638 5648 5656 5665 5672 5680 5686 5691 5696 5698 5699 5701 5703 5705 5706 5707 5707 5707 5707 5707 5706 5705 5704 5700 5699 5698 5697 5697 5698
5551 5552 5552 5554 5557 5553 5554 5566 5578 5591 5603 5605 5616 5622 5629 5637 5644 5653 5662 5672 5678 5684 5689 5693 5696 5697 5700 5703 5705 5706 5708 5708 5708 5707 5707 5707 5708 5707 5703 5702 5701 5699 5699 5700
5554 5554 5555 5555 5553 5553 5567 5577 5585 5587 5600 5596 5610 5618 5625 5630 5643 5651 5657 5668 5677 5682 5687 5692 5695 5696 5699 5702 5705 5707 5708 5709 5709 5708 5709 5709 5709 5708 5707 5706 5704 5701 5701 5702
5554 5556 5557 5557 5559 5562 5564 5575 5584 5583 5588 5593 5601 5615 5627 5636 5643 5649 5657 5665 5673 5680 5684 5690 5693 5695 5698 5701 5704 5707 5709 5709 5710 5709 5710 5710 5711 5711 5711 5710 5709 5706 5706 5706
5557 5558 5560 5562 5562 5564 5568 5564 5574 5584 5591 5600 5604 5616 5628 5638 5642 5648 5655 5662 5669 5678 5684 5688 5692 5695 5698 5699 5702 5706 5708 5709 5711 5711 5711 5712 5713 5714 5714 5714 5715 5713 5712 5712
Wind_Speed
67 69 63 53 56 56 57 61 56 50 50 46 45 49 48 44 41 40 36 36 28 29 28 31 23 23 28 32 37 38 40 41 39 31 31 33 34 35 31 26 28 28 31 35
72 63 55 60 65 61 59 58 52 51 51 47 43 44 44 43 41 39 29 31 30 28 26 26 24 27 30 36 38 39 40 44 36 29 28 31 32 33 26 27 29 31 33 35
67 61 61 61 66 64 60 57 53 53 50 47 50 43 46 36 38 31 32 28 28 27 23 24 26 29 31 36 38 39 36 35 28 23 25 29 30 26 26 31 31 32 33 34
68 60 62 64 65 64 64 57 55 54 51 51 46 47 39 34 34 31 28 29 28 24 19 25 27 29 31 37 37 36 25 26 23 18 28 28 24 24 29 29 31 33 31 32
56 61 63 63 60 63 57 61 59 57 54 54 48 45 25 34 30 24 26 27 21 17 23 27 28 29 27 27 25 23 22 22 18 24 25 23 23 26 27 27 30 26 28 28
51 54 55 58 59 60 58 62 62 59 57 57 42 42 24 23 17 22 21 20 16 17 25 21 22 18 16 14 16 19 19 20 20 23 21 21 24 25 23 26 24 25 25 24
37 37 51 56 59 58 59 60 61 61 61 46 40 41 17 12 17 24 19 16 16 22 16 21 20 13 14 12 17 18 16 18 23 20 19 20 20 20 23 22 22 23 22 20
30 37 45 53 57 58 58 58 60 59 58 52 49 43 31 16 25 19 17 15 17 11 15 18 13 14 14 13 15 13 15 19 19 17 18 19 19 21 20 19 21 22 18 15
25 33 44 48 52 58 56 60 55 59 59 56 52 47 37 25 23 11 12 7 7 11 17 9 10 11 13 13 12 14 15 16 16 16 17 18 19 17 19 18 21 16 14 11
30 30 27 32 48 55 54 55 57 59 57 57 51 48 39 27 24 15 12 5 8 14 13 9 11 10 11 11 13 13 14 15 14 15 16 15 16 17 19 19 14 12 9 9
26 29 30 33 40 49 55 55 55 59 59 54 51 47 30 26 20 18 9 11 10 8 8 10 10 10 10 11 9 10 11 11 13 13 13 15 16 19 16 13 11 9 8 7
18 24 21 30 41 44 52 56 56 60 58 54 51 43 28 25 25 20 11 7 5 5 10 10 11 11 12 9 8 9 10 11 11 13 13 15 16 14 11 9 8 8 8 5
14 19 18 16 40 43 52 56 59 58 60 56 51 34 34 29 25 16 14 11 5 7 11 9 10 11 11 10 8 9 10 9 11 13 14 15 14 8 8 6 7 8 7 4
17 17 18 12 32 49 49 55 61 60 58 56 51 38 35 32 25 24 17 11 8 10 16 13 10 11 10 8 7 8 9 8 11 14 13 11 8 7 9 7 6 6 6 3
8 10 8 18 29 46 50 55 65 64 58 55 53 42 42 32 30 18 17 14 7 10 13 9 11 11 9 7 6 7 6 8 10 9 7 7 9 10 10 7 5 4 4 3
8 12 10 13 19 35 48 49 65 66 61 58 53 48 29 30 29 28 16 17 11 14 15 11 11 9 7 5 4 6 5 8 9 9 10 10 9 6 5 5 5 3 1 6
13 16 2 6 10 32 44 43 62 65 63 62 56 51 39 33 28 27 21 19 16 17 18 14 10 8 5 4 3 5 5 6 8 9 8 6 5 4 2 3 3 2 3 7
12 10 4 12 16 29 26 46 51 63 59 61 55 54 42 36 34 31 28 26 22 25 22 16 8 6 4 4 4 4 5 4 7 7 6 7 6 7 5 6 5 4 4 7
3 7 3 4 5 19 30 37 44 61 57 60 50 52 44 41 35 32 34 27 26 26 21 11 8 5 5 3 2 4 3 4 6 6 5 7 7 5 6 6 4 2 3 8
2 6 4 8 6 16 27 33 53 57 50 46 56 53 50 46 40 33 32 25 24 21 11 12 6 6 5 2 2 4 2 2 4 4 5 7 9 7 5 5 6 6 5 9
7 9 8 12 13 27 33 39 58 52 47 50 63 56 56 45 42 35 23 23 24 22 18 11 8 9 7 3 3 3 1 1 3 4 4 6 8 11 9 4 6 7 5 7
13 5 3 7 24 14 5 52 62 56 44 59 61 53 46 42 39 37 32 26 28 26 19 13 9 11 10 6 4 2 1 1 3 4 4 7 8 10 12 9 7 6 7 11
9 10 15 13 15 18 46 51 54 47 47 47 55 38 50 38 45 37 34 26 26 26 19 16 10 12 13 8 5 3 1 1 3 5 5 6 6 10 15 14 11 9 10 12
13 9 17 6 12 20 40 41 49 32 60 38 53 52 43 30 34 35 34 29 25 25 20 15 11 12 16 12 7 4 2 2 2 6 5 5 6 8 13 15 15 15 13 14
7 12 7 6 10 14 24 46 46 41 61 38 57 48 40 36 40 33 34 28 26 27 24 19 15 12 13 15 12 7 3 3 2 4 6 6 8 8 11 14 18 20 16 17
5 5 6 1 9 9 17 14 34 42 48 37 31 29 38 47 38 34 30 25 26 27 24 24 18 14 13 14 16 11 7 3 3 3 5 7 8 10 13 15 17 23 24 17
Wind_Direction
240 240 242 247 247 245 246 247 249 249 254 254 259 257 257 261 257 258 257 254 263 258 264 268 281 282 278 288 279 278 280 279 276 278 275 272 274 280 282 291 298 291 293 300
238 239 239 238 239 239 240 244 245 250 253 257 256 255 255 249 250 253 257 259 256 263 270 286 280 273 277 276 278 280 285 287 278 267 264 267 275 282 288 296 301 295 297 300
239 238 235 235 237 238 238 239 241 246 248 248 255 245 257 246 248 253 258 255 260 259 275 270 267 268 270 281 282 285 289 286 263 251 255 263 275 283 291 297 290 294 299 303
232 232 235 233 234 234 235 238 239 242 245 248 251 253 249 245 242 242 249 253 258 275 271 266 266 275 274 274 274 284 279 265 249 250 253 268 276 286 293 294 291 291 296 301
227 227 226 228 230 233 232 233 235 238 242 246 247 252 229 239 239 238 244 257 264 260 259 258 266 273 272 277 278 275 261 259 255 251 268 274 285 291 290 287 293 297 303 302
217 226 223 224 227 228 227 231 231 233 237 240 239 249 238 234 238 235 244 249 253 257 254 270 276 272 276 267 261 250 250 258 257 268 271 286 290 285 282 290 293 296 299 303
217 217 220 218 222 223 223 226 228 229 232 233 232 237 227 203 226 238 241 238 246 255 264 275 275 262 256 239 242 253 253 259 268 273 283 286 285 284 285 288 296 300 304 303
211 212 215 214 217 219 219 224 226 229 231 232 231 232 226 218 226 235 221 238 255 270 269 266 281 253 235 239 250 255 264 264 272 280 286 288 291 287 293 296 298 304 303 306
237 213 209 214 214 215 214 220 222 224 227 227 230 232 229 216 241 236 243 241 258 266 262 271 268 247 233 238 251 263 267 272 282 285 291 295 292 299 294 294 301 303 308 302
251 247 222 216 213 212 213 216 215 220 220 224 225 228 225 226 236 213 222 242 258 246 255 253 250 242 241 246 256 268 272 280 285 289 296 296 300 296 296 301 304 309 315 305
248 258 221 222 218 209 209 210 214 214 218 219 221 222 221 205 224 236 209 208 253 250 265 262 256 246 257 249 256 268 277 286 296 297 296 296 292 300 304 310 309 311 317 296
263 255 240 217 214 208 212 207 209 211 216 216 220 215 208 202 205 218 186 215 254 282 261 265 256 257 261 255 256 277 288 295 298 298 298 293 303 310 314 301 302 310 324 301
266 248 240 241 212 205 209 208 204 208 211 210 214 191 191 196 193 194 183 207 283 271 247 244 257 254 252 249 270 289 289 297 297 296 297 297 303 303 317 314 315 307 327 290
255 262 262 231 209 211 205 208 202 205 205 208 207 183 180 189 193 185 192 217 231 242 234 253 267 269 265 264 284 289 294 293 298 304 307 307 314 306 302 300 297 304 316 249
242 230 253 250 218 215 202 206 200 203 201 205 206 180 178 178 188 199 187 206 227 218 235 256 268 266 260 274 281 283 289 290 308 324 318 319 309 297 298 291 292 270 287 195
245 224 281 256 225 218 208 207 201 200 200 202 201 177 179 185 188 203 199 210 214 209 225 259 271 262 265 267 252 288 272 294 316 308 321 323 317 327 297 286 273 218 198 167
237 240 242 172 206 203 210 203 202 198 200 201 196 175 187 187 192 199 208 192 194 218 228 248 256 257 250 230 264 275 269 295 309 320 341 348 3 16 40 132 136 164 147 161
227 229 177 170 180 215 211 205 203 198 198 202 186 182 183 179 191 200 206 199 201 215 229 239 248 233 217 213 275 247 263 292 317 337 23 41 53 52 63 87 96 127 149 156
150 141 149 194 216 189 207 202 200 191 197 203 175 182 187 196 185 181 203 200 199 214 221 223 213 196 191 225 244 233 246 287 322 356 40 43 62 61 58 78 77 139 168 163
194 166 157 144 114 187 178 190 188 187 195 199 181 182 184 201 196 201 187 182 197 206 203 205 192 186 176 178 198 216 223 311 343 8 35 51 60 63 81 76 63 94 136 166
113 79 71 188 157 184 170 174 183 185 191 188 185 186 192 196 193 192 190 181 190 186 199 206 194 177 158 131 156 198 183 347 14 12 19 40 55 62 53 76 101 80 102 149
69 88 115 144 148 169 183 167 175 185 188 186 187 195 194 197 205 190 185 187 186 182 187 201 188 173 157 132 111 155 184 29 38 23 31 59 59 61 57 86 102 82 102 129
76 76 81 158 165 87 134 166 170 179 171 188 190 196 193 166 169 181 185 183 182 180 187 198 182 181 169 154 123 118 165 126 64 47 35 61 74 75 75 81 89 97 107 127
92 83 130 127 111 91 157 168 174 176 176 170 194 202 208 199 179 185 188 191 178 183 182 195 192 191 181 171 154 126 158 158 108 71 58 70 85 87 78 76 70 71 97 127
120 92 66 360 168 126 130 160 190 175 186 180 174 190 189 195 195 186 194 193 188 192 185 199 196 190 187 188 182 168 152 166 152 91 72 78 91 92 93 88 80 74 94 109
90 123 139 159 347 137 154 120 153 197 182 184 169 191 195 199 198 198 196 189 186 190 190 203 204 195 190 189 191 181 170 155 166 135 96 101 99 96 106 108 97 88 86 99